User: anonymous   Login
Location: Unspecified
(0.0000°N, 0.0000°E)
Time: 22:37:54
(UTC+00:00)
Language:

OBJECT PH - Orbit

View from above orbital plane
View from above orbital plane
View from above satellite
View from above satellite

Ground track
Ground track

The orbit data is extracted from the following two-line orbital elements,

1 43596U 98067PH  19046.82137553 +.00010351 +00000-0 +14276-3 0  9994
2 43596 051.6375 241.7236 0003782 014.7279 345.3823 15.57830496028669
Epoch (UTC): 15 February 2019 19:42:46
Eccentricity: 0.0003782
inclination: 51.6375°
perigee height: 391 km
apogee height: 396 km
right ascension of ascending node: 241.7236°
argument of perigee: 14.7279°
revolutions per day: 15.57830496
mean anomaly at epoch: 345.3823°
orbit number at epoch: 2866

The dashed part of the orbit path shows where the satellite is in the earth's shadow,  

DLR